Location: Columbus
(29.5618°N, 96.6770°W)
Time: 11:32:53
(UTC-05:00)

Daily predictions for brighter satellites

Satellite Brightness Start Highest point End
(mag) Time Altitude Azimuth Time Altitude Azimuth Time Altitude Azimuth
EO 1 Del DPAF 3.6 20:18:59 10° N 20:22:47 72° WNW 20:26:34 10° SSW
OAO 2 Rocket 3.5 20:18:07 10° WNW 20:23:24 76° NNE 20:28:34 10° ESE
Cosmos 2278 Rocket 3.7 20:20:39 10° NNE 20:24:34 19° ENE 20:28:27 10° ESE
FengYun 1-2 T 4.3 20:20:43 10° SSE 20:26:19 79° ENE 20:31:58 10° N
ASTRO E2 2.7 20:28:29 10° WSW 20:32:30 88° SSE 20:36:32 10° ENE
Hubble Space Telescope 2.5 20:34:12 10° SSW 20:36:50 16° SSE 20:39:00 12° ESE
Envisat 3.3 20:32:19 10° SSE 20:37:10 48° ENE 20:42:01 10° N
H-2A R/B 4.1 20:34:29 10° S 20:38:00 41° W 20:41:34 10° NNW
Cosmos 1825 4.2 20:37:25 10° NE 20:38:51 12° ENE 20:39:48 11° E
Cosmos 1328 Rocket 3.6 20:36:16 10° S 20:40:34 59° E 20:44:57 10° NNE
In-Cosmos 22 Rocket 4.4 20:36:17 10° NNW 20:41:39 74° W 20:46:55 10° S
CZ-4C R/B4.020:44:58E20:44:58E20:37:43SSE
Nadezhda 3 Rocket 4.1 20:36:50 10° N 20:43:07 65° E 20:49:25 10° SSE
OAO 3 Rocket 4.2 20:39:33 10° SSW 20:43:30 26° SSE 20:46:40 14° E
Fermi 4.3 20:40:10 10° WSW 20:44:08 45° S 20:47:16 15° ESE
FREGAT/IRIS 3.2 20:41:47 10° S 20:44:41 58° W 20:47:35 10° NNW
Cosmos 1805 Rocket 4.1 20:40:59 10° NNW 20:45:16 61° W 20:49:32 10° S
Cosmos 2228 Rocket 3.4 20:41:58 10° SSE 20:46:07 43° E 20:50:16 10° NNE
Cosmos 2056 Rocket 3.9 20:48:03 10° S 20:53:07 41° E 20:58:10 10° NNE
Cosmos 2251 Rocket 3.9 20:49:09 10° NNW 20:54:29 69° WSW 20:59:46 10° S
Sakura Rocket 3.2 20:50:02 10° W 20:55:45 81° S 20:58:50 19° E
SL-16 R/B 2.6 20:55:22 10° S 21:00:36 40° ESE 21:05:51 10° NE
HJ-1C 4.2 20:57:43 10° S 21:00:57 52° W 21:04:14 10° NNW
Cosmos 1408 3.6 20:58:12 10° NNE 21:01:23 27° E 21:02:17 24° ESE
Cosmos 1470 Rocket 3.9 21:00:02 10° N 21:04:17 45° E 21:07:10 19° SSE
Gblst 52 Del rocket 4.3 21:03:05 10° SSW 21:08:41 49° SE 21:13:58 10° NE
Cosmos 1624 Rocket 3.9 21:04:21 10° S 21:09:28 65° ESE 21:14:36 10° NNE
Cosmos 220 Rocket 3.8 21:06:09 10° NNW 21:10:27 84° ENE 21:13:32 18° SSE
ERS-2 2.0 21:10:25 16° SSE 21:13:14 90° NNE 21:16:55 10° NNW
YAOGAN 6 2.5 21:11:28 25° SSE 21:13:25 64° ENE 21:17:01 10° N
ATLAS 2AS CENTAUR R/B 2.8 21:05:45 10° NNW 21:13:30 74° ENE 21:18:33 21° SE
Cosmos 2098 Rocket 3.5 21:08:52 10° SSE 21:13:30 41° E 21:17:14 10° NNE
Resurs 01 Rocket 1.8 21:12:36 24° SE 21:14:58 51° ENE 21:19:16 10° N
Cosmos 2344 3.8 21:07:56 10° S 21:15:14 42° ESE 21:22:23 10° NE
Cosmos 1151 Rocket 3.1 21:12:03 10° S 21:16:17 78° W 21:20:33 10° N
Cosmos 1959 Rocket 4.4 21:12:19 10° S 21:18:24 65° E 21:24:27 10° NNE
SAR-Lupe-3 4.4 21:15:58 10° NNE 21:19:32 73° E 21:22:36 13° S
Spot 2 Rocket 3.9 21:17:24 27° SE 21:19:41 44° ENE 21:24:30 10° N
deb Centaur AC-2 4.2 21:22:08 10° W 21:26:22 56° SSW 21:27:41 39° SE
SJ-6B 4.4 21:24:08 10° SSW 21:27:49 34° W 21:31:27 10° NNW
Stardust Del rocket 4.4 21:27:44 10° SW 21:30:51 33° SSE 21:30:59 33° SSE
Cosmos 1727 Rocket 4.5 21:26:33 10° NNE 21:32:15 38° E 21:33:38 34° ESE
Cosmos 1933 Rocket 3.4 21:28:11 10° N 21:32:33 84° E 21:34:21 35° S
Cosmos 1869 3.4 21:31:24 14° S 21:34:49 77° W 21:38:51 10° N
Meteor 2-3 Rocket 4.3 21:29:37 10° NNW 21:35:07 56° W 21:40:39 10° S
BREEZE-M DEB (TANK) 4.3 21:36:01 10° NNW 21:37:32 16° NNE 21:37:32 16° NNE
Resurs 1-3 3.7 21:38:37 30° S 21:40:41 71° WSW 21:45:03 10° NNW
Cosmos 2218 Rocket 4.2 21:37:10 10° S 21:43:29 75° W 21:49:54 10° N
Cosmos 1939 Rocket 3.7 21:44:30 27° SSW 21:46:13 45° W 21:49:58 10° NNW
USA 186 4.1 21:47:55 15° W 21:47:55 15° W 21:48:59 10° NW
Cosmos 2366 rocket 4.2 21:44:26 10° SSW 21:50:37 73° W 21:56:53 10° N
Cosmos 407 Rocket 3.5 21:59:42 10° N 22:04:28 64° NE 22:04:28 64° NE
NOAA 11 4.3 22:03:16 46° S 22:04:53 73° WSW 22:10:24 10° NNW
OAO 2 Rocket 4.4 22:03:21 10° W 22:07:53 34° SW 22:07:53 34° SW
Cosmos 2278 Rocket 3.0 22:03:25 10° NNW 22:08:49 46° WSW 22:10:53 32° SSW
Cosmos 405 Rocket 4.1 22:10:36 34° N 22:10:36 34° N 22:12:56 10° N
Cosmos 1339 Rocket 4.4 22:05:51 10° N 22:11:59 80° W 22:13:37 52° S
BREEZE-M DEB (TANK) 4.1 22:07:57 10° SW 22:12:04 76° SE 22:26:59 10° NE
ASTRO E2 3.9 22:09:09 10° W 22:11:55 41° WNW 22:11:55 41° WNW
Cosmos 1825 4.0 22:11:11 10° NNW 22:14:25 27° W 22:14:41 27° W
Hubble Space Telescope 3.2 22:13:41 10° WSW 22:14:24 14° SW 22:14:24 14° SW
ATLAS 2A CENTAUR R/B 3.8 21:57:13 10° WSW 22:18:46 74° S 22:22:31 48° ESE
H-2A R/B 2.9 22:23:56 38° NNE 22:23:56 38° NNE 22:27:10 10° N
USA 81 4.1 22:18:09 10° N 22:22:59 73° NW 22:22:59 73° NW
CZ-4C R/B 2.5 22:29:40 51° W 22:30:25 57° WNW 22:35:52 10° NNE
ARGOS 3.5 22:33:05 62° NNW 22:33:05 62° NNW 22:37:30 10° NNW
Cosmos 1452 Rocket 4.2 22:35:18 49° W 22:35:40 50° WNW 22:40:46 10° N
Aurora 2 Rocket 4.3 22:27:56 10° WSW 22:34:02 42° SW 22:34:02 42° SW
Cosmos 2369 Rocket 4.2 23:20:22 10° N 23:22:25 22° N 23:22:25 22° N
USA 267 4.5 23:29:49 10° NNE 23:33:29 33° N 23:33:29 33° N
ATLAS 5 CENTAUR R/B 4.2 23:37:44 10° NNW 23:40:22 25° N 23:40:22 25° N
